Time,TemperatureF,DewpointF,PressureIn,WindDirection,WindDirectionDegrees,WindSpeedMPH,WindSpeedGustMPH,Humidity,HourlyPrecipIn,Conditions,Clouds,dailyrainin,SoftwareType,DateUTC
2013-02-01 00:04:00,7.5,-6.5,29.59,WNW,303,17.0,18.0,52,0.00,SCT,,0.00,WeatherDisplay:10.37,2013-02-01 06:04:00,
2013-02-01 00:09:00,7.2,-7.2,29.59,NW,305,17.0,18.0,51,0.00,SCT,,0.00,WeatherDisplay:10.37,2013-02-01 06:09:00,
2013-02-01 00:14:00,7.2,-7.2,29.59,WNW,301,17.0,17.0,51,0.00,SCT,,0.00,WeatherDisplay:10.37,2013-02-01 06:14:00,
2013-02-01 00:19:00,7.2,-7.2,29.59,NW,304,17.0,18.0,51,0.00,SCT,,0.00,WeatherDisplay:10.37,2013-02-01 06:19:00,
2013-02-01 00:24:00,7.3,-7.4,29.59,NW,304,17.0,18.0,50,0.00,SCT,,0.00,WeatherDisplay:10.37,2013-02-01 06:24:00,
2013-02-01 00:29:00,7.2,-7.6,29.59,WNW,300,18.0,18.0,50,0.00,SCT,,0.00,WeatherDisplay:10.37,2013-02-01 06:29:00,
2013-02-01 00:34:00,7.0,-7.8,29.62,WNW,300,18.0,18.0,50,0.00,SCT,,0.00,WeatherDisplay:10.37,2013-02-01 06:34:00,
2013-02-01 00:39:00,7.0,-7.8,29.62,WNW,299,18.0,18.0,50,0.00,SCT,,0.00,WeatherDisplay:10.37,2013-02-01 06:39:00,
2013-02-01 00:44:00,7.0,-7.8,29.62,WNW,298,18.0,18.0,50,0.00,SCT,,0.00,WeatherDisplay:10.37,2013-02-01 06:44:00,
2013-02-01 00:49:00,6.8,-7.9,29.62,WNW,302,18.0,18.0,50,0.00,SCT,,0.00,WeatherDisplay:10.37,2013-02-01 06:49:00,
2013-02-01 00:54:00,6.8,-7.9,29.62,WNW,303,18.0,18.0,50,0.00,SCT,,0.00,WeatherDisplay:10.37,2013-02-01 06:54:00,
2013-02-01 00:59:00,6.8,-7.9,29.62,WNW,302,18.0,18.0,50,0.00,SCT,,0.00,WeatherDisplay:10.37,2013-02-01 06:59:00,
2013-02-01 01:04:00,6.6,-8.1,29.62,WNW,296,17.0,18.0,50,0.00,SCT,,0.00,WeatherDisplay:10.37,2013-02-01 07:04:00,
2013-02-01 01:09:00,6.8,-7.9,29.62,WNW,297,17.0,18.0,50,0.00,SCT,,0.00,WeatherDisplay:10.37,2013-02-01 07:09:00,
2013-02-01 01:14:00,6.6,-8.1,29.62,WNW,298,18.0,18.0,50,0.00,SCT,,0.00,WeatherDisplay:10.37,2013-02-01 07:14:00,
2013-02-01 01:19:00,6.6,-8.1,29.62,WNW,298,18.0,18.0,50,0.00,SCT,,0.00,WeatherDisplay:10.37,2013-02-01 07:19:00,
2013-02-01 01:24:00,6.6,-8.1,29.62,WNW,299,18.0,18.0,50,0.00,SCT,,0.00,WeatherDisplay:10.37,2013-02-01 07:24:00,
2013-02-01 01:29:00,6.6,-8.1,29.62,WNW,300,18.0,19.0,50,0.00,SCT,,0.00,WeatherDisplay:10.37,2013-02-01 07:29:00,
2013-02-01 01:34:00,6.6,-8.1,29.62,WNW,295,18.0,19.0,50,0.00,CLR,,0.00,WeatherDisplay:10.37,2013-02-01 07:34:00,
2013-02-01 01:39:00,6.6,-8.1,29.62,WNW,299,18.0,19.0,50,0.00,CLR,,0.00,WeatherDisplay:10.37,2013-02-01 07:39:00,
2013-02-01 01:44:00,6.6,-8.1,29.62,NW,305,18.0,19.0,50,0.00,CLR,,0.00,WeatherDisplay:10.37,2013-02-01 07:44:00,
2013-02-01 01:49:00,6.6,-8.1,29.62,NW,305,18.0,19.0,50,0.00,CLR,,0.00,WeatherDisplay:10.37,2013-02-01 07:49:00,
2013-02-01 01:54:00,6.4,-8.3,29.62,NW,305,18.0,19.0,50,0.00,CLR,,0.00,WeatherDisplay:10.37,2013-02-01 07:54:00,
2013-02-01 01:59:00,6.4,-7.9,29.62,WNW,298,17.0,18.0,51,0.00,CLR,,0.00,WeatherDisplay:10.37,2013-02-01 07:59:00,
2013-02-01 02:04:00,6.6,-7.7,29.65,WNW,293,16.0,17.0,51,0.00,CLR,,0.00,WeatherDisplay:10.37,2013-02-01 08:04:00,
2013-02-01 02:09:00,6.4,-7.9,29.62,WNW,297,16.0,16.0,51,0.00,CLR,,0.00,WeatherDisplay:10.37,2013-02-01 08:09:00,
2013-02-01 02:14:00,6.6,-7.3,29.62,WNW,298,17.0,17.0,52,0.00,CLR,,0.00,WeatherDisplay:10.37,2013-02-01 08:14:00,
2013-02-01 02:19:00,6.6,-7.3,29.62,WNW,300,17.0,17.0,52,0.00,CLR,,0.00,WeatherDisplay:10.37,2013-02-01 08:19:00,
2013-02-01 02:24:00,6.6,-7.3,29.62,NW,304,17.0,17.0,52,0.00,CLR,,0.00,WeatherDisplay:10.37,2013-02-01 08:24:00,
2013-02-01 02:29:00,6.6,-7.3,29.62,WNW,303,17.0,17.0,52,0.00,CLR,,0.00,WeatherDisplay:10.37,2013-02-01 08:29:00,
2013-02-01 02:34:00,6.4,-7.5,29.62,NW,307,17.0,17.0,52,0.00,CLR,,0.00,WeatherDisplay:10.37,2013-02-01 08:34:00,
2013-02-01 02:39:00,6.4,-7.9,29.62,NW,308,17.0,17.0,51,0.00,CLR,,0.00,WeatherDisplay:10.37,2013-02-01 08:39:00,
2013-02-01 02:49:00,6.3,-8.0,29.62,NW,306,17.0,18.0,51,0.00,CLR,,0.00,WeatherDisplay:10.37,2013-02-01 08:49:00,
2013-02-01 02:54:00,6.1,-8.6,29.62,NW,307,18.0,18.0,50,0.00,CLR,,0.00,WeatherDisplay:10.37,2013-02-01 08:54:00,
2013-02-01 02:59:00,6.1,-8.6,29.62,NW,306,18.0,18.0,50,0.00,CLR,,0.00,WeatherDisplay:10.37,2013-02-01 08:59:00,
2013-02-01 03:04:00,5.9,-8.4,29.62,WNW,300,17.0,18.0,51,0.00,CLR,,0.00,WeatherDisplay:10.37,2013-02-01 09:04:00,
2013-02-01 03:09:00,5.9,-8.4,29.62,NW,304,18.0,18.0,51,0.00,CLR,,0.00,WeatherDisplay:10.37,2013-02-01 09:09:00,
2013-02-01 03:14:00,5.9,-8.8,29.62,NW,315,17.0,18.0,50,0.00,CLR,,0.00,WeatherDisplay:10.37,2013-02-01 09:14:00,
2013-02-01 03:19:00,5.9,-8.8,29.62,NW,315,17.0,17.0,50,0.00,CLR,,0.00,WeatherDisplay:10.37,2013-02-01 09:19:00,
2013-02-01 03:24:00,5.7,-8.9,29.62,NW,311,17.0,17.0,50,0.00,CLR,,0.00,WeatherDisplay:10.37,2013-02-01 09:24:00,
2013-02-01 03:29:00,5.5,-9.1,29.65,NW,305,16.0,17.0,50,0.00,CLR,,0.00,WeatherDisplay:10.37,2013-02-01 09:29:00,
2013-02-01 03:34:00,5.5,-8.7,29.65,WNW,300,16.0,16.0,51,0.00,CLR,,0.00,WeatherDisplay:10.37,2013-02-01 09:34:00,
2013-02-01 03:39:00,5.5,-8.7,29.65,WNW,298,16.0,16.0,51,0.00,CLR,,0.00,WeatherDisplay:10.37,2013-02-01 09:39:00,
2013-02-01 03:44:00,5.5,-8.7,29.65,NW,305,15.0,16.0,51,0.00,CLR,,0.00,WeatherDisplay:10.37,2013-02-01 09:44:00,
2013-02-01 03:49:00,5.5,-8.7,29.65,NW,306,15.0,15.0,51,0.00,CLR,,0.00,WeatherDisplay:10.37,2013-02-01 09:49:00,
2013-02-01 03:54:00,5.5,-8.7,29.65,NW,307,15.0,15.0,51,0.00,CLR,,0.00,WeatherDisplay:10.37,2013-02-01 09:54:00,
2013-02-01 03:59:00,5.4,-9.3,29.65,NW,310,15.0,15.0,50,0.00,CLR,,0.00,WeatherDisplay:10.37,2013-02-01 09:59:00,
2013-02-01 04:04:00,5.5,-9.1,29.65,NW,307,15.0,15.0,50,0.00,CLR,,0.00,WeatherDisplay:10.37,2013-02-01 10:04:00,
2013-02-01 04:09:00,5.4,-9.3,29.65,NW,304,15.0,15.0,50,0.00,CLR,,0.00,WeatherDisplay:10.37,2013-02-01 10:09:00,
2013-02-01 04:14:00,5.2,-9.4,29.65,WNW,302,15.0,15.0,50,0.00,CLR,,0.00,WeatherDisplay:10.37,2013-02-01 10:14:00,
2013-02-01 04:19:00,5.2,-9.4,29.65,NW,309,15.0,15.0,50,0.00,CLR,,0.00,WeatherDisplay:10.37,2013-02-01 10:19:00,
2013-02-01 04:24:00,5.2,-9.4,29.65,NW,312,15.0,15.0,50,0.00,CLR,,0.00,WeatherDisplay:10.37,2013-02-01 10:24:00,
2013-02-01 04:29:00,5.2,-9.4,29.65,NW,313,15.0,15.0,50,0.00,CLR,,0.00,WeatherDisplay:10.37,2013-02-01 10:29:00,
2013-02-01 04:34:00,5.2,-9.4,29.65,NW,309,14.0,15.0,50,0.00,CLR,,0.00,WeatherDisplay:10.37,2013-02-01 10:34:00,
2013-02-01 04:39:00,5.2,-9.4,29.65,NW,307,14.0,14.0,50,0.00,CLR,,0.00,WeatherDisplay:10.37,2013-02-01 10:39:00,
2013-02-01 04:44:00,5.2,-9.4,29.65,NW,308,14.0,14.0,50,0.00,CLR,,0.00,WeatherDisplay:10.37,2013-02-01 10:44:00,
2013-02-01 04:49:00,4.8,-9.4,29.65,NW,305,13.0,14.0,51,0.00,CLR,,0.00,WeatherDisplay:10.37,2013-02-01 10:49:00,
2013-02-01 04:54:00,5.0,-9.2,29.65,NW,304,13.0,13.0,51,0.00,CLR,,0.00,WeatherDisplay:10.37,2013-02-01 10:54:00,
2013-02-01 04:59:00,5.0,-9.2,29.65,NW,304,13.0,13.0,51,0.00,CLR,,0.00,WeatherDisplay:10.37,2013-02-01 10:59:00,
2013-02-01 05:04:00,4.8,-9.4,29.65,NW,305,13.0,13.0,51,0.00,CLR,,0.00,WeatherDisplay:10.37,2013-02-01 11:04:00,
2013-02-01 05:09:00,4.8,-9.4,29.65,WNW,303,13.0,13.0,51,0.00,CLR,,0.00,WeatherDisplay:10.37,2013-02-01 11:09:00,
2013-02-01 05:14:00,4.8,-9.4,29.65,WNW,300,13.0,13.0,51,0.00,CLR,,0.00,WeatherDisplay:10.37,2013-02-01 11:14:00,
2013-02-01 05:19:00,4.8,-9.4,29.65,NW,309,13.0,13.0,51,0.00,CLR,,0.00,WeatherDisplay:10.37,2013-02-01 11:19:00,
2013-02-01 05:24:00,4.8,-9.4,29.65,NW,309,13.0,13.0,51,0.00,CLR,,0.00,WeatherDisplay:10.37,2013-02-01 11:24:00,
2013-02-01 05:29:00,4.8,-9.4,29.65,NW,309,13.0,13.0,51,0.00,CLR,,0.00,WeatherDisplay:10.37,2013-02-01 11:29:00,
2013-02-01 05:34:00,4.6,-9.5,29.65,NW,308,13.0,13.0,51,0.00,CLR,,0.00,WeatherDisplay:10.37,2013-02-01 11:34:00,
2013-02-01 05:39:00,4.6,-9.5,29.65,NW,309,13.0,13.0,51,0.00,CLR,,0.00,WeatherDisplay:10.37,2013-02-01 11:39:00,
2013-02-01 05:49:00,4.6,-9.2,29.65,NW,308,12.0,12.0,52,0.00,CLR,,0.00,WeatherDisplay:10.37,2013-02-01 11:49:00,
2013-02-01 05:54:00,4.5,-9.3,29.65,NW,307,12.0,12.0,52,0.00,CLR,,0.00,WeatherDisplay:10.37,2013-02-01 11:54:00,
2013-02-01 05:59:00,4.3,-9.5,29.65,NW,306,12.0,12.0,52,0.00,CLR,,0.00,WeatherDisplay:10.37,2013-02-01 11:59:00,
2013-02-01 06:04:00,4.5,-9.3,29.65,NW,305,12.0,12.0,52,0.00,CLR,,0.00,WeatherDisplay:10.37,2013-02-01 12:04:00,
2013-02-01 06:09:00,4.5,-9.3,29.65,NW,305,12.0,12.0,52,0.00,CLR,,0.00,WeatherDisplay:10.37,2013-02-01 12:09:00,
2013-02-01 06:14:00,4.5,-9.3,29.65,NW,304,12.0,12.0,52,0.00,CLR,,0.00,WeatherDisplay:10.37,2013-02-01 12:14:00,
2013-02-01 06:19:00,4.3,-9.5,29.65,WNW,298,12.0,12.0,52,0.00,CLR,,0.00,WeatherDisplay:10.37,2013-02-01 12:19:00,
2013-02-01 06:24:00,4.3,-9.5,29.65,WNW,295,12.0,12.0,52,0.00,CLR,,0.00,WeatherDisplay:10.37,2013-02-01 12:24:00,
2013-02-01 06:29:00,4.3,-9.5,29.68,WNW,297,13.0,13.0,52,0.00,CLR,,0.00,WeatherDisplay:10.37,2013-02-01 12:29:00,
2013-02-01 06:34:00,4.3,-9.5,29.68,WNW,300,12.0,13.0,52,0.00,CLR,,0.00,WeatherDisplay:10.37,2013-02-01 12:34:00,
2013-02-01 06:39:00,4.3,-9.5,29.68,WNW,298,12.0,12.0,52,0.00,CLR,,0.00,WeatherDisplay:10.37,2013-02-01 12:39:00,
2013-02-01 06:44:00,4.3,-9.5,29.68,WNW,297,12.0,12.0,52,0.00,CLR,,0.00,WeatherDisplay:10.37,2013-02-01 12:44:00,
2013-02-01 06:49:00,4.1,-9.3,29.68,WNW,298,12.0,12.0,53,0.00,CLR,,0.00,WeatherDisplay:10.37,2013-02-01 12:49:00,
2013-02-01 06:54:00,4.1,-9.3,29.68,WNW,297,12.0,12.0,53,0.00,CLR,,0.00,WeatherDisplay:10.37,2013-02-01 12:54:00,
2013-02-01 06:59:00,4.1,-9.3,29.68,WNW,298,10.0,11.0,53,0.00,CLR,,0.00,WeatherDisplay:10.37,2013-02-01 12:59:00,
2013-02-01 07:04:00,4.3,-9.1,29.68,WNW,301,10.0,11.0,53,0.00,CLR,,0.00,WeatherDisplay:10.37,2013-02-01 13:04:00,
2013-02-01 07:09:00,4.3,-9.5,29.68,WNW,298,10.0,11.0,52,0.00,CLR,,0.00,WeatherDisplay:10.37,2013-02-01 13:09:00,
2013-02-01 07:14:00,4.5,-9.3,29.68,WNW,296,10.0,11.0,52,0.00,CLR,,0.00,WeatherDisplay:10.37,2013-02-01 13:14:00,
2013-02-01 07:19:00,4.8,-8.6,29.71,WNW,295,12.0,12.0,53,0.00,CLR,,0.00,WeatherDisplay:10.37,2013-02-01 13:19:00,
2013-02-01 07:24:00,5.2,-8.3,29.68,WNW,295,12.0,12.0,53,0.00,CLR,,0.00,WeatherDisplay:10.37,2013-02-01 13:24:00,
2013-02-01 07:29:00,5.5,-7.9,29.68,WNW,295,10.0,11.0,53,0.00,CLR,,0.00,WeatherDisplay:10.37,2013-02-01 13:29:00,
2013-02-01 07:34:00,5.9,-8.0,29.71,WNW,299,10.0,11.0,52,0.00,CLR,,0.00,WeatherDisplay:10.37,2013-02-01 13:34:00,
2013-02-01 07:39:00,6.3,-7.6,29.71,WNW,299,10.0,10.0,52,0.00,CLR,,0.00,WeatherDisplay:10.37,2013-02-01 13:39:00,
2013-02-01 07:49:00,7.3,-7.0,29.68,WNW,296,10.0,10.0,51,0.00,CLR,,0.00,WeatherDisplay:10.37,2013-02-01 13:49:00,
2013-02-01 07:54:00,7.7,-6.7,29.68,WNW,295,10.0,10.0,51,0.00,CLR,,0.00,WeatherDisplay:10.37,2013-02-01 13:54:00,
2013-02-01 08:04:00,8.4,-6.4,29.68,WNW,293,9.0,10.0,50,0.00,CLR,,0.00,WeatherDisplay:10.37,2013-02-01 14:04:00,
2013-02-01 08:09:00,8.4,-6.9,29.68,WNW,295,9.0,10.0,49,0.00,CLR,,0.00,WeatherDisplay:10.37,2013-02-01 14:09:00,
2013-02-01 08:14:00,9.1,-6.2,29.68,WNW,292,9.0,10.0,49,0.00,CLR,,0.00,WeatherDisplay:10.37,2013-02-01 14:14:00,
2013-02-01 08:19:00,9.7,-6.1,29.71,WNW,288,9.0,9.0,48,0.00,CLR,,0.00,WeatherDisplay:10.37,2013-02-01 14:19:00,
2013-02-01 08:24:00,9.7,-6.1,29.71,WNW,290,9.0,9.0,48,0.00,CLR,,0.00,WeatherDisplay:10.37,2013-02-01 14:24:00,
2013-02-01 08:29:00,9.9,-6.4,29.68,WNW,291,9.0,9.0,47,0.00,CLR,,0.00,WeatherDisplay:10.37,2013-02-01 14:29:00,
2013-02-01 08:34:00,9.7,-7.0,29.71,WNW,289,9.0,9.0,46,0.00,CLR,,0.00,WeatherDisplay:10.37,2013-02-01 14:34:00,
2013-02-01 08:39:00,9.3,-7.3,29.71,WNW,294,9.0,9.0,46,0.00,CLR,,0.00,WeatherDisplay:10.37,2013-02-01 14:39:00,
2013-02-01 08:44:00,9.9,-6.8,29.71,WNW,299,9.0,9.0,46,0.00,CLR,,0.00,WeatherDisplay:10.37,2013-02-01 14:44:00,
2013-02-01 08:49:00,10.9,-5.8,29.71,WNW,300,9.0,9.0,46,0.00,CLR,,0.00,WeatherDisplay:10.37,2013-02-01 14:49:00,
2013-02-01 08:54:00,11.3,-5.5,29.71,WNW,296,9.0,9.0,46,0.00,CLR,,0.00,WeatherDisplay:10.37,2013-02-01 14:54:00,
2013-02-01 08:59:00,11.7,-5.6,29.71,WNW,286,9.0,9.0,45,0.00,CLR,,0.00,WeatherDisplay:10.37,2013-02-01 14:59:00,
2013-02-01 09:04:00,11.8,-5.5,29.71,WNW,285,9.0,9.0,45,0.00,CLR,,0.00,WeatherDisplay:10.37,2013-02-01 15:04:00,
2013-02-01 09:09:00,11.7,-6.1,29.71,WNW,292,9.0,9.0,44,0.00,CLR,,0.00,WeatherDisplay:10.37,2013-02-01 15:09:00,
2013-02-01 09:14:00,12.2,-5.1,29.71,WNW,292,9.0,10.0,45,0.00,CLR,,0.00,WeatherDisplay:10.37,2013-02-01 15:14:00,
2013-02-01 09:19:00,12.4,-5.4,29.71,WNW,294,9.0,10.0,44,0.00,CLR,,0.00,WeatherDisplay:10.37,2013-02-01 15:19:00,
2013-02-01 09:24:00,12.9,-4.9,29.71,WNW,292,9.0,10.0,44,0.00,CLR,,0.00,WeatherDisplay:10.37,2013-02-01 15:24:00,
2013-02-01 09:29:00,13.6,-4.3,29.71,WNW,288,9.0,10.0,44,0.00,CLR,,0.00,WeatherDisplay:10.37,2013-02-01 15:29:00,
2013-02-01 09:34:00,13.3,-5.1,29.71,WNW,288,9.0,10.0,43,0.00,CLR,,0.00,WeatherDisplay:10.37,2013-02-01 15:34:00,
2013-02-01 09:39:00,13.5,-4.9,29.71,WNW,292,9.0,9.0,43,0.00,CLR,,0.00,WeatherDisplay:10.37,2013-02-01 15:39:00,
2013-02-01 09:44:00,14.2,-4.3,29.71,WNW,290,9.0,9.0,43,0.00,CLR,,0.00,WeatherDisplay:10.37,2013-02-01 15:44:00,
2013-02-01 09:49:00,14.5,-3.9,29.71,West,274,9.0,9.0,43,0.00,CLR,,0.00,WeatherDisplay:10.37,2013-02-01 15:49:00,
2013-02-01 09:59:00,14.9,-4.6,29.71,West,274,9.0,9.0,41,0.00,CLR,,0.00,WeatherDisplay:10.37,2013-02-01 15:59:00,
2013-02-01 10:04:00,15.4,-3.6,29.71,West,273,9.0,9.0,42,0.00,CLR,,0.00,WeatherDisplay:10.37,2013-02-01 16:04:00,
2013-02-01 10:09:00,15.8,-3.8,29.74,West,278,9.0,9.0,41,0.00,CLR,,0.00,WeatherDisplay:10.37,2013-02-01 16:09:00,
2013-02-01 10:14:00,15.8,-3.8,29.71,West,280,9.0,9.0,41,0.00,CLR,,0.00,WeatherDisplay:10.37,2013-02-01 16:14:00,
2013-02-01 10:19:00,16.5,-3.1,29.71,West,268,9.0,9.0,41,0.00,CLR,,0.00,WeatherDisplay:10.37,2013-02-01 16:19:00,
2013-02-01 10:24:00,15.8,-3.8,29.71,West,265,9.0,9.0,41,0.00,CLR,,0.00,WeatherDisplay:10.37,2013-02-01 16:24:00,
2013-02-01 10:29:00,16.5,-3.6,29.71,West,259,9.0,9.0,40,0.00,CLR,,0.00,WeatherDisplay:10.37,2013-02-01 16:29:00,
2013-02-01 10:34:00,16.3,-3.3,29.71,West,261,9.0,9.0,41,0.00,CLR,,0.00,WeatherDisplay:10.37,2013-02-01 16:34:00,
2013-02-01 10:39:00,17.1,-2.6,29.71,West,259,9.0,9.0,41,0.00,CLR,,0.00,WeatherDisplay:10.37,2013-02-01 16:39:00,
2013-02-01 10:44:00,16.3,-3.8,29.71,WSW,258,9.0,9.0,40,0.00,CLR,,0.00,WeatherDisplay:10.37,2013-02-01 16:44:00,
2013-02-01 10:49:00,17.1,-3.2,29.71,WSW,258,9.0,10.0,40,0.00,CLR,,0.00,WeatherDisplay:10.37,2013-02-01 16:49:00,
2013-02-01 10:54:00,17.1,-3.2,29.71,West,263,10.0,10.0,40,0.00,CLR,,0.00,WeatherDisplay:10.37,2013-02-01 16:54:00,
2013-02-01 10:59:00,16.3,-3.8,29.71,West,264,10.0,10.0,40,0.00,CLR,,0.00,WeatherDisplay:10.37,2013-02-01 16:59:00,
2013-02-01 11:04:00,17.6,-2.1,29.71,WSW,254,10.0,11.0,41,0.00,CLR,,0.00,WeatherDisplay:10.37,2013-02-01 17:04:00,
2013-02-01 11:09:00,17.6,-2.1,29.71,WSW,251,10.0,11.0,41,0.00,CLR,,0.00,WeatherDisplay:10.37,2013-02-01 17:09:00,
2013-02-01 11:14:00,17.6,-2.7,29.71,WSW,257,12.0,12.0,40,0.00,CLR,,0.00,WeatherDisplay:10.37,2013-02-01 17:14:00,
2013-02-01 11:19:00,17.4,-2.8,29.71,West,267,10.0,12.0,40,0.00,CLR,,0.00,WeatherDisplay:10.37,2013-02-01 17:19:00,
2013-02-01 11:24:00,17.2,-3.0,29.71,West,266,12.0,12.0,40,0.00,CLR,,0.00,WeatherDisplay:10.37,2013-02-01 17:24:00,
2013-02-01 11:29:00,16.7,-3.5,29.71,West,260,12.0,12.0,40,0.00,CLR,,0.00,WeatherDisplay:10.37,2013-02-01 17:29:00,
2013-02-01 11:34:00,17.4,-2.8,29.71,West,262,12.0,12.0,40,0.00,CLR,,0.00,WeatherDisplay:10.37,2013-02-01 17:34:00,
2013-02-01 11:39:00,18.0,-1.8,29.71,WSW,255,12.0,12.0,41,0.00,CLR,,0.00,WeatherDisplay:10.37,2013-02-01 17:39:00,
2013-02-01 11:44:00,18.1,-1.7,29.71,West,263,12.0,12.0,41,0.00,CLR,,0.00,WeatherDisplay:10.37,2013-02-01 17:44:00,
2013-02-01 11:49:00,17.8,-2.0,29.68,West,264,10.0,12.0,41,0.00,CLR,,0.00,WeatherDisplay:10.37,2013-02-01 17:49:00,
2013-02-01 11:54:00,17.8,-2.0,29.68,West,260,10.0,11.0,41,0.00,CLR,,0.00,WeatherDisplay:10.37,2013-02-01 17:54:00,
2013-02-01 11:59:00,17.6,-2.1,29.68,West,265,10.0,11.0,41,0.00,CLR,,0.00,WeatherDisplay:10.37,2013-02-01 17:59:00,
2013-02-01 12:04:00,17.8,-2.0,29.68,West,263,10.0,11.0,41,0.00,CLR,,0.00,WeatherDisplay:10.37,2013-02-01 18:04:00,
2013-02-01 12:09:00,18.1,-1.7,29.68,WSW,257,10.0,11.0,41,0.00,CLR,,0.00,WeatherDisplay:10.37,2013-02-01 18:09:00,
2013-02-01 12:14:00,18.5,-1.3,29.68,WSW,245,10.0,11.0,41,0.00,CLR,,0.00,WeatherDisplay:10.37,2013-02-01 18:14:00,
2013-02-01 12:19:00,18.5,-1.3,29.68,WSW,252,10.0,11.0,41,0.00,CLR,,0.00,WeatherDisplay:10.37,2013-02-01 18:19:00,
2013-02-01 12:24:00,18.5,-1.3,29.68,WSW,256,10.0,11.0,41,0.00,CLR,,0.00,WeatherDisplay:10.37,2013-02-01 18:24:00,
2013-02-01 12:29:00,18.7,-1.2,29.68,West,261,12.0,12.0,41,0.00,CLR,,0.00,WeatherDisplay:10.37,2013-02-01 18:29:00,
2013-02-01 12:34:00,18.9,-1.0,29.68,West,265,12.0,12.0,41,0.00,CLR,,0.00,WeatherDisplay:10.37,2013-02-01 18:34:00,
2013-02-01 12:39:00,19.0,-0.8,29.68,WSW,258,12.0,12.0,41,0.00,CLR,,0.00,WeatherDisplay:10.37,2013-02-01 18:39:00,
2013-02-01 12:44:00,19.4,-0.5,29.68,WSW,252,12.0,12.0,41,0.00,CLR,,0.00,WeatherDisplay:10.37,2013-02-01 18:44:00,
2013-02-01 12:49:00,19.2,-0.7,29.68,WSW,252,12.0,12.0,41,0.00,CLR,,0.00,WeatherDisplay:10.37,2013-02-01 18:49:00,
2013-02-01 12:54:00,18.9,-1.5,29.68,WSW,252,12.0,12.0,40,0.00,CLR,,0.00,WeatherDisplay:10.37,2013-02-01 18:54:00,
2013-02-01 12:59:00,19.6,-0.3,29.65,West,265,12.0,12.0,41,0.00,CLR,,0.00,WeatherDisplay:10.37,2013-02-01 18:59:00,
2013-02-01 13:04:00,19.8,-0.2,29.65,West,266,10.0,12.0,41,0.00,CLR,,0.00,WeatherDisplay:10.37,2013-02-01 19:04:00,
2013-02-01 13:09:00,20.1,-0.4,29.65,West,260,12.0,12.0,40,0.00,CLR,,0.00,WeatherDisplay:10.37,2013-02-01 19:09:00,
2013-02-01 13:14:00,19.9,-0.5,29.65,WSW,257,12.0,12.0,40,0.00,CLR,,0.00,WeatherDisplay:10.37,2013-02-01 19:14:00,
2013-02-01 13:19:00,20.5,0.5,29.65,West,271,12.0,12.0,41,0.00,CLR,,0.00,WeatherDisplay:10.37,2013-02-01 19:19:00,
2013-02-01 13:24:00,20.5,-0.1,29.65,West,277,13.0,13.0,40,0.00,CLR,,0.00,WeatherDisplay:10.37,2013-02-01 19:24:00,
2013-02-01 13:29:00,21.0,0.4,29.65,West,280,13.0,13.0,40,0.00,CLR,,0.00,WeatherDisplay:10.37,2013-02-01 19:29:00,
2013-02-01 13:34:00,20.7,0.1,29.65,West,280,13.0,13.0,40,0.00,CLR,,0.00,WeatherDisplay:10.37,2013-02-01 19:34:00,
2013-02-01 13:39:00,21.0,0.4,29.65,West,280,13.0,13.0,40,0.00,CLR,,0.00,WeatherDisplay:10.37,2013-02-01 19:39:00,
2013-02-01 13:44:00,21.0,-0.1,29.65,West,280,13.0,13.0,39,0.00,CLR,,0.00,WeatherDisplay:10.37,2013-02-01 19:44:00,
2013-02-01 13:49:00,21.4,0.8,29.65,West,280,14.0,14.0,40,0.00,CLR,,0.00,WeatherDisplay:10.37,2013-02-01 19:49:00,
2013-02-01 13:54:00,21.7,1.1,29.65,West,280,14.0,14.0,40,0.00,CLR,,0.00,WeatherDisplay:10.37,2013-02-01 19:54:00,
2013-02-01 13:59:00,21.4,0.8,29.65,West,280,14.0,14.0,40,0.00,CLR,,0.00,WeatherDisplay:10.37,2013-02-01 19:59:00,
2013-02-01 14:04:00,21.7,1.1,29.65,West,280,14.0,14.0,40,0.00,CLR,,0.00,WeatherDisplay:10.37,2013-02-01 20:04:00,
2013-02-01 14:09:00,21.4,0.8,29.65,West,280,14.0,14.0,40,0.00,CLR,,0.00,WeatherDisplay:10.37,2013-02-01 20:09:00,
2013-02-01 14:19:00,21.9,1.8,29.65,West,280,14.0,14.0,41,0.00,CLR,,0.00,WeatherDisplay:10.37,2013-02-01 20:19:00,
2013-02-01 14:24:00,21.2,0.6,29.62,West,280,14.0,14.0,40,0.00,CLR,,0.00,WeatherDisplay:10.37,2013-02-01 20:24:00,
2013-02-01 14:29:00,21.7,1.1,29.62,West,280,14.0,14.0,40,0.00,CLR,,0.00,WeatherDisplay:10.37,2013-02-01 20:29:00,
2013-02-01 14:34:00,21.6,0.9,29.62,West,280,14.0,14.0,40,0.00,CLR,,0.00,WeatherDisplay:10.37,2013-02-01 20:34:00,
2013-02-01 14:39:00,21.4,0.2,29.62,West,280,14.0,14.0,39,0.00,CLR,,0.00,WeatherDisplay:10.37,2013-02-01 20:39:00,
2013-02-01 14:49:00,21.9,1.2,29.62,West,280,14.0,14.0,40,0.00,CLR,,0.00,WeatherDisplay:10.37,2013-02-01 20:49:00,
2013-02-01 14:54:00,22.1,1.4,29.62,West,280,14.0,14.0,40,0.00,CLR,,0.00,WeatherDisplay:10.37,2013-02-01 20:54:00,
2013-02-01 14:59:00,21.7,1.1,29.62,West,280,14.0,14.0,40,0.00,CLR,,0.00,WeatherDisplay:10.37,2013-02-01 20:59:00,
2013-02-01 15:04:00,21.4,0.8,29.62,West,280,14.0,14.0,40,0.00,CLR,,0.00,WeatherDisplay:10.37,2013-02-01 21:04:00,
2013-02-01 15:09:00,21.6,1.5,29.62,West,280,14.0,14.0,41,0.00,CLR,,0.00,WeatherDisplay:10.37,2013-02-01 21:09:00,
2013-02-01 15:14:00,22.3,2.1,29.62,West,280,14.0,14.0,41,0.00,CLR,,0.00,WeatherDisplay:10.37,2013-02-01 21:14:00,
2013-02-01 15:19:00,23.0,2.2,29.62,West,280,14.0,14.0,40,0.00,CLR,,0.00,WeatherDisplay:10.37,2013-02-01 21:19:00,
2013-02-01 15:24:00,23.0,2.2,29.59,West,280,14.0,14.0,40,0.00,CLR,,0.00,WeatherDisplay:10.37,2013-02-01 21:24:00,
2013-02-01 15:29:00,23.0,2.2,29.59,West,280,14.0,14.0,40,0.00,CLR,,0.00,WeatherDisplay:10.37,2013-02-01 21:29:00,
2013-02-01 15:34:00,23.7,2.9,29.59,West,280,14.0,14.0,40,0.00,SCT,,0.00,WeatherDisplay:10.37,2013-02-01 21:34:00,
2013-02-01 15:39:00,23.9,3.0,29.59,West,280,14.0,14.0,40,0.00,SCT,,0.00,WeatherDisplay:10.37,2013-02-01 21:39:00,
2013-02-01 15:44:00,23.2,2.4,29.59,West,280,14.0,14.0,40,0.00,SCT,,0.00,WeatherDisplay:10.37,2013-02-01 21:44:00,
2013-02-01 15:49:00,23.2,2.4,29.59,West,280,14.0,14.0,40,0.00,OVC,,0.00,WeatherDisplay:10.37,2013-02-01 21:49:00,
2013-02-01 15:54:00,23.5,2.7,29.59,West,280,14.0,14.0,40,0.00,OVC,,0.00,WeatherDisplay:10.37,2013-02-01 21:54:00,
2013-02-01 15:59:00,22.8,2.1,29.59,West,280,14.0,14.0,40,0.00,OVC,,0.00,WeatherDisplay:10.37,2013-02-01 21:59:00,
2013-02-01 16:04:00,22.6,1.9,29.59,West,280,14.0,14.0,40,0.00,OVC,,0.00,WeatherDisplay:10.37,2013-02-01 22:04:00,
2013-02-01 16:09:00,22.8,2.1,29.59,West,280,14.0,14.0,40,0.00,OVC,,0.00,WeatherDisplay:10.37,2013-02-01 22:09:00,
2013-02-01 16:14:00,23.0,2.2,29.59,West,280,14.0,14.0,40,0.00,OVC,,0.00,WeatherDisplay:10.37,2013-02-01 22:14:00,
2013-02-01 16:19:00,22.8,2.1,29.59,West,280,14.0,14.0,40,0.00,OVC,,0.00,WeatherDisplay:10.37,2013-02-01 22:19:00,
2013-02-01 16:24:00,22.8,2.1,29.59,West,280,14.0,14.0,40,0.00,OVC,,0.00,WeatherDisplay:10.37,2013-02-01 22:24:00,
2013-02-01 16:29:00,22.6,2.4,29.59,West,280,14.0,14.0,41,0.00,OVC,,0.00,WeatherDisplay:10.37,2013-02-01 22:29:00,
2013-02-01 16:34:00,22.3,2.1,29.59,West,280,14.0,14.0,41,0.00,OVC,,0.00,WeatherDisplay:10.37,2013-02-01 22:34:00,
2013-02-01 16:39:00,22.3,2.1,29.59,West,280,14.0,14.0,41,0.00,OVC,,0.00,WeatherDisplay:10.37,2013-02-01 22:39:00,
2013-02-01 16:49:00,21.9,1.8,29.59,West,280,14.0,14.0,41,0.00,OVC,,0.00,WeatherDisplay:10.37,2013-02-01 22:49:00,
2013-02-01 16:54:00,21.9,1.8,29.59,West,280,14.0,14.0,41,0.00,OVC,,0.00,WeatherDisplay:10.37,2013-02-01 22:54:00,
2013-02-01 16:59:00,21.9,2.3,29.59,West,280,14.0,14.0,42,0.00,OVC,,0.00,WeatherDisplay:10.37,2013-02-01 22:59:00,
2013-02-01 17:04:00,21.9,2.3,29.59,West,280,14.0,14.0,42,0.00,OVC,,0.00,WeatherDisplay:10.37,2013-02-01 23:04:00,
2013-02-01 17:09:00,21.9,2.3,29.59,West,280,14.0,14.0,42,0.00,OVC,,0.00,WeatherDisplay:10.37,2013-02-01 23:09:00,
2013-02-01 17:14:00,21.9,2.8,29.59,West,280,14.0,14.0,43,0.00,OVC,,0.00,WeatherDisplay:10.37,2013-02-01 23:14:00,
2013-02-01 17:19:00,21.9,2.8,29.59,West,264,14.0,14.0,43,0.00,OVC,,0.00,WeatherDisplay:10.37,2013-02-01 23:19:00,
2013-02-01 17:24:00,21.9,2.8,29.59,WSW,256,14.0,14.0,43,0.00,OVC,,0.00,WeatherDisplay:10.37,2013-02-01 23:24:00,
2013-02-01 17:29:00,21.9,2.8,29.59,WSW,243,14.0,14.0,43,0.00,OVC,,0.00,WeatherDisplay:10.37,2013-02-01 23:29:00,
2013-02-01 17:34:00,21.7,2.6,29.59,WSW,244,14.0,14.0,43,0.00,OVC,,0.00,WeatherDisplay:10.37,2013-02-01 23:34:00,
2013-02-01 17:39:00,21.7,2.1,29.59,WSW,250,13.0,14.0,42,0.00,OVC,,0.00,WeatherDisplay:10.37,2013-02-01 23:39:00,
2013-02-01 17:49:00,21.9,2.8,29.59,WSW,247,13.0,13.0,43,0.00,OVC,,0.00,WeatherDisplay:10.37,2013-02-01 23:49:00,
2013-02-01 17:54:00,21.7,2.6,29.59,WSW,250,12.0,13.0,43,0.00,OVC,,0.00,WeatherDisplay:10.37,2013-02-01 23:54:00,
2013-02-01 17:59:00,21.7,2.6,29.59,WSW,249,12.0,12.0,43,0.00,OVC,,0.00,WeatherDisplay:10.37,2013-02-01 23:59:00,
2013-02-01 18:04:00,21.9,3.3,29.59,WSW,239,12.0,12.0,44,0.00,OVC,,0.00,WeatherDisplay:10.37,2013-02-02 00:04:00,
2013-02-01 18:09:00,21.9,3.3,29.59,WSW,237,12.0,12.0,44,0.00,OVC,,0.00,WeatherDisplay:10.37,2013-02-02 00:09:00,
2013-02-01 18:14:00,21.9,3.3,29.59,SW,236,10.0,12.0,44,0.00,OVC,,0.00,WeatherDisplay:10.37,2013-02-02 00:14:00,
2013-02-01 18:19:00,21.9,3.3,29.59,SW,231,10.0,11.0,44,0.00,OVC,,0.00,WeatherDisplay:10.37,2013-02-02 00:19:00,
2013-02-01 18:24:00,21.9,3.3,29.59,SW,234,12.0,12.0,44,0.00,OVC,,0.00,WeatherDisplay:10.37,2013-02-02 00:24:00,
2013-02-01 18:29:00,21.9,3.8,29.59,SW,228,12.0,12.0,45,0.00,OVC,,0.00,WeatherDisplay:10.37,2013-02-02 00:29:00,
2013-02-01 18:34:00,21.9,3.8,29.56,SW,225,12.0,12.0,45,0.00,OVC,,0.00,WeatherDisplay:10.37,2013-02-02 00:34:00,
2013-02-01 18:39:00,21.7,3.6,29.56,SW,225,12.0,12.0,45,0.00,OVC,,0.00,WeatherDisplay:10.37,2013-02-02 00:39:00,
2013-02-01 18:49:00,21.7,4.1,29.56,SW,225,12.0,12.0,46,0.00,OVC,,0.00,WeatherDisplay:10.37,2013-02-02 00:49:00,
2013-02-01 18:54:00,21.6,3.9,29.56,SW,225,12.0,12.0,46,0.00,OVC,,0.00,WeatherDisplay:10.37,2013-02-02 00:54:00,
2013-02-01 18:59:00,21.6,3.9,29.56,SW,228,12.0,12.0,46,0.00,OVC,,0.00,WeatherDisplay:10.37,2013-02-02 00:59:00,
2013-02-01 19:04:00,21.2,4.1,29.56,SW,223,10.0,12.0,47,0.00,BKN,,0.00,WeatherDisplay:10.37,2013-02-02 01:04:00,
2013-02-01 19:09:00,21.2,4.1,29.56,SW,222,10.0,11.0,47,0.00,BKN,,0.00,WeatherDisplay:10.37,2013-02-02 01:09:00,
2013-02-01 19:14:00,21.4,4.7,29.56,SW,225,10.0,11.0,48,0.00,BKN,,0.00,WeatherDisplay:10.37,2013-02-02 01:14:00,
2013-02-01 19:19:00,21.4,4.2,29.56,SW,227,10.0,11.0,47,0.00,BKN,,0.00,WeatherDisplay:10.37,2013-02-02 01:19:00,
2013-02-01 19:24:00,21.6,4.4,29.56,SW,225,10.0,10.0,47,0.00,BKN,,0.00,WeatherDisplay:10.37,2013-02-02 01:24:00,
2013-02-01 19:29:00,21.6,4.9,29.56,SW,218,10.0,10.0,48,0.00,BKN,,0.00,WeatherDisplay:10.37,2013-02-02 01:29:00,
2013-02-01 19:34:00,21.6,4.9,29.56,SW,215,10.0,10.0,48,0.00,SCT,,0.00,WeatherDisplay:10.37,2013-02-02 01:34:00,
2013-02-01 19:39:00,21.6,4.9,29.56,SW,215,10.0,10.0,48,0.00,SCT,,0.00,WeatherDisplay:10.37,2013-02-02 01:39:00,
2013-02-01 19:44:00,21.7,5.0,29.56,SSW,212,10.0,10.0,48,0.00,SCT,,0.00,WeatherDisplay:10.37,2013-02-02 01:44:00,
2013-02-01 19:49:00,21.7,5.5,29.56,SSW,206,10.0,10.0,49,0.00,CLR,,0.00,WeatherDisplay:10.37,2013-02-02 01:49:00,
2013-02-01 19:54:00,21.7,5.5,29.53,SSW,205,10.0,10.0,49,0.00,CLR,,0.00,WeatherDisplay:10.37,2013-02-02 01:54:00,
2013-02-01 19:59:00,21.9,5.2,29.53,SSW,207,9.0,10.0,48,0.00,CLR,,0.00,WeatherDisplay:10.37,2013-02-02 01:59:00,
2013-02-01 20:04:00,21.9,5.2,29.53,SSW,206,10.0,10.0,48,0.00,CLR,,0.00,WeatherDisplay:10.37,2013-02-02 02:04:00,
2013-02-01 20:09:00,21.9,5.2,29.53,SSW,200,10.0,10.0,48,0.00,CLR,,0.00,WeatherDisplay:10.37,2013-02-02 02:09:00,
2013-02-01 20:14:00,22.1,5.4,29.53,SSW,192,9.0,10.0,48,0.00,CLR,,0.00,WeatherDisplay:10.37,2013-02-02 02:14:00,
2013-02-01 20:19:00,22.1,5.8,29.53,South,188,9.0,10.0,49,0.00,CLR,,0.00,WeatherDisplay:10.37,2013-02-02 02:19:00,
2013-02-01 20:24:00,22.1,5.8,29.53,South,187,9.0,9.0,49,0.00,CLR,,0.00,WeatherDisplay:10.37,2013-02-02 02:24:00,
2013-02-01 20:29:00,22.3,6.0,29.53,SSW,192,9.0,9.0,49,0.00,CLR,,0.00,WeatherDisplay:10.37,2013-02-02 02:29:00,
2013-02-01 20:34:00,22.5,6.2,29.53,SSW,197,9.0,9.0,49,0.00,CLR,,0.00,WeatherDisplay:10.37,2013-02-02 02:34:00,
2013-02-01 20:39:00,22.5,6.2,29.53,SSW,198,9.0,9.0,49,0.00,CLR,,0.00,WeatherDisplay:10.37,2013-02-02 02:39:00,
2013-02-01 20:44:00,22.6,6.3,29.53,South,191,9.0,9.0,49,0.00,CLR,,0.00,WeatherDisplay:10.37,2013-02-02 02:44:00,
2013-02-01 20:49:00,22.6,6.8,29.53,South,189,9.0,9.0,50,0.00,BKN,,0.00,WeatherDisplay:10.37,2013-02-02 02:49:00,
2013-02-01 20:54:00,22.6,6.8,29.53,South,191,9.0,9.0,50,0.00,BKN,,0.00,WeatherDisplay:10.37,2013-02-02 02:54:00,
2013-02-01 20:59:00,23.0,7.1,29.53,SSW,192,10.0,10.0,50,0.00,BKN,,0.00,WeatherDisplay:10.37,2013-02-02 02:59:00,
2013-02-01 21:09:00,23.0,7.1,29.53,SSW,201,10.0,11.0,50,0.00,OVC,,0.00,WeatherDisplay:10.37,2013-02-02 03:09:00,
2013-02-01 21:14:00,23.0,7.1,29.53,SSW,198,10.0,11.0,50,0.00,OVC,,0.00,WeatherDisplay:10.37,2013-02-02 03:14:00,
2013-02-01 21:19:00,23.0,7.5,29.53,SSW,195,10.0,11.0,51,0.00,OVC,,0.00,WeatherDisplay:10.37,2013-02-02 03:19:00,
2013-02-01 21:24:00,23.2,7.7,29.50,SSW,193,12.0,12.0,51,0.00,OVC,,0.00,WeatherDisplay:10.37,2013-02-02 03:24:00,
2013-02-01 21:29:00,23.2,7.7,29.50,SSW,194,12.0,12.0,51,0.00,OVC,,0.00,WeatherDisplay:10.37,2013-02-02 03:29:00,
2013-02-01 21:34:00,23.4,7.9,29.50,SSW,202,12.0,12.0,51,0.00,BKN,,0.00,WeatherDisplay:10.37,2013-02-02 03:34:00,
2013-02-01 21:39:00,23.4,7.9,29.50,SSW,206,12.0,12.0,51,0.00,BKN,,0.00,WeatherDisplay:10.37,2013-02-02 03:39:00,
2013-02-01 21:44:00,23.2,8.6,29.50,SSW,211,13.0,13.0,53,0.00,BKN,,0.00,WeatherDisplay:10.37,2013-02-02 03:44:00,
2013-02-01 21:49:00,22.6,9.7,29.50,SSW,212,14.0,14.0,57,0.00,OVC,,0.00,WeatherDisplay:10.37,2013-02-02 03:49:00,
2013-02-01 21:54:00,22.6,10.1,29.50,SSW,211,14.0,14.0,58,0.00,OVC,,0.00,WeatherDisplay:10.37,2013-02-02 03:54:00,
2013-02-01 22:04:00,22.1,11.4,29.50,SSW,203,15.0,15.0,63,0.00,-SN,,0.00,WeatherDisplay:10.37,2013-02-02 04:04:00,
2013-02-01 22:09:00,21.9,11.6,29.50,SSW,207,15.0,15.0,64,0.00,-SN,,0.00,WeatherDisplay:10.37,2013-02-02 04:09:00,
2013-02-01 22:14:00,21.9,11.9,29.50,SSW,209,15.0,15.0,65,0.00,-SN,,0.00,WeatherDisplay:10.37,2013-02-02 04:14:00,
2013-02-01 22:19:00,21.7,12.1,29.50,SSW,205,15.0,15.0,66,0.00,-SN,,0.00,WeatherDisplay:10.37,2013-02-02 04:19:00,
2013-02-01 22:24:00,21.7,12.1,29.50,SSW,203,15.0,15.0,66,0.00,-SN,,0.00,WeatherDisplay:10.37,2013-02-02 04:24:00,
2013-02-01 22:29:00,21.7,12.5,29.50,SSW,198,15.0,15.0,67,0.00,-SN,,0.00,WeatherDisplay:10.37,2013-02-02 04:29:00,
2013-02-01 22:34:00,21.6,13.0,29.50,SSW,203,15.0,15.0,69,0.00,-SN,,0.00,WeatherDisplay:10.37,2013-02-02 04:34:00,
2013-02-01 22:39:00,21.6,13.3,29.50,SSW,203,15.0,15.0,70,0.00,-SN,,0.00,WeatherDisplay:10.37,2013-02-02 04:39:00,
2013-02-01 22:49:00,21.6,13.6,29.50,SSW,204,15.0,15.0,71,0.00,-SN,,0.00,WeatherDisplay:10.37,2013-02-02 04:49:00,
2013-02-01 22:59:00,21.6,13.6,29.50,SSW,202,15.0,15.0,71,0.00,-SN,,0.00,WeatherDisplay:10.37,2013-02-02 04:59:00,
2013-02-01 23:04:00,21.7,14.1,29.50,SSW,199,15.0,15.0,72,0.00,-SN,,0.00,WeatherDisplay:10.37,2013-02-02 05:04:00,
2013-02-01 23:09:00,21.7,14.1,29.47,SSW,200,15.0,15.0,72,0.00,-SN,,0.00,WeatherDisplay:10.37,2013-02-02 05:09:00,
2013-02-01 23:14:00,21.9,14.3,29.47,SSW,200,14.0,15.0,72,0.00,-SN,,0.00,WeatherDisplay:10.37,2013-02-02 05:14:00,
2013-02-01 23:19:00,22.1,14.4,29.47,SSW,200,14.0,14.0,72,0.00,-SN,,0.00,WeatherDisplay:10.37,2013-02-02 05:19:00,
2013-02-01 23:24:00,22.3,14.3,29.47,SSW,200,14.0,14.0,71,0.00,-SN,,0.00,WeatherDisplay:10.37,2013-02-02 05:24:00,
2013-02-01 23:29:00,22.5,14.5,29.47,SSW,198,14.0,14.0,71,0.00,-SN,,0.00,WeatherDisplay:10.37,2013-02-02 05:29:00,
2013-02-01 23:34:00,22.8,14.8,29.47,SSW,195,14.0,14.0,71,0.00,-SN,,0.00,WeatherDisplay:10.37,2013-02-02 05:34:00,
2013-02-01 23:39:00,22.8,14.8,29.47,SSW,196,14.0,14.0,71,0.00,-SN,,0.00,WeatherDisplay:10.37,2013-02-02 05:39:00,
2013-02-01 23:44:00,22.8,14.8,29.47,SSW,200,14.0,14.0,71,0.00,-SN,,0.00,WeatherDisplay:10.37,2013-02-02 05:44:00,
2013-02-01 23:49:00,22.8,14.8,29.47,SSW,204,15.0,15.0,71,0.00,BKN,,0.00,WeatherDisplay:10.37,2013-02-02 05:49:00,
2013-02-01 23:54:00,22.8,14.8,29.47,SSW,205,15.0,15.0,71,0.00,BKN,,0.00,WeatherDisplay:10.37,2013-02-02 05:54:00,
2013-02-01 23:59:00,23.0,15.0,29.44,SSW,205,15.0,15.0,71,0.00,BKN,,0.00,WeatherDisplay:10.37,2013-02-02 05:59:00,